User: anonymous   Login
Location: Unspecified
(0.0000°N, 0.0000°E)
Time: 08:53:09
(UTC+02:00)
Language:

Cosmos 1758 - Orbit

View from above orbital plane
View from above orbital plane
View from above satellite
View from above satellite

Ground track
Ground track

The orbit data is extracted from the following two-line orbital elements,

1 16791U 86046A   15209.85515859  .00001295  00000-0  93516-4 0  9996
2 16791 082.4723 343.1843 0015697 273.5792 086.3639 15.03207667582075
Epoch (UTC): 28 July 2015 20:31:25
Eccentricity: 0.0015697
inclination: 82.4723°
perigee height: 546 km
apogee height: 568 km
right ascension of ascending node: 343.1843°
argument of perigee: 273.5792°
revolutions per day: 15.03207667
mean anomaly at epoch: 86.3639°
orbit number at epoch: 58207

The dashed part of the orbit path shows where the satellite is in the earth's shadow,  

DLR